Regional Weather Roundup
Issued by NWS Charleston, SC

Current Version | Previous Version | Text Only | Print | Product List | Glossary Off
Versions: 1 2 3 4 5 6 7 8 9 10 11 12 13 14 15 16 17 18 19 20 21 22 23 24 25 26 27 28 29 30 31 32 33 34 35 36 37 38 39 40 41 42 43 44 45 46 47 48 49 50

979
ASUS42 KCHS 231713
RWRCHS

REGIONAL WEATHER ROUNDUP
NATIONAL WEATHER SERVICE CHARLESTON SC
100 PM EDT MON MAY 23 2016

NOTE: "FAIR" INDICATES FEW OR NO CLOUDS BELOW 12,000 FEET WITH NO
SIGNIFICANT WEATHER AND/OR OBSTRUCTIONS TO VISIBILITY.

NOT ALL STATIONS ARE QUALITY CONTROLLED. USE DATA WITH CAUTION...
ESPECIALLY DEWPOINT OBSERVATIONS.

SCZ027-030-031-034>040-042>050-231800-
...SOUTHEAST SOUTH CAROLINA...

CITY           SKY/WX    TMP DP  RH WIND       PRES   REMARKS
N CHARLESTON   MOSUNNY   78  50  37 N9        29.96F
WATERFRONT PRK   N/A     74  53  47 N5G14     29.94F
MOUNT PLEASANT   N/A     75  50  41 NW10G17   29.97S
JOHNS ISLAND   FAIR      79  52  38 W12G17    29.96F
PINOPOLIS        N/A     73  54  49 CALM      29.91F
MONCKS CORNER  FAIR      70  43  37 N6        29.97F
SUMMERVILLE    FAIR      77  54  44 NW7       29.98S
BEAUFORT MCAS  MOSUNNY   79  52  38 N7        29.97F
BEAUFORT ARPT  FAIR      77  48  36 N5        29.97S
HILTON HEAD IS SUNNY     75  48  38 NW8       29.98
WALTERBORO     SUNNY     79  46  31 NW5       29.98S
ALLENDALE      FAIR      77  50  38 VRB6G14   29.97F

...SOUTHERN MIDLANDS AND PEE DEE...

CITY           SKY/WX    TMP DP  RH WIND       PRES   REMARKS
GEORGETOWN     FAIR      73  50  43 W8        29.97F
KINGSTREE      CLOUDY    70  48  46 NW6       29.98S
ORANGEBURG     SUNNY     75  49  39 N8        29.98F
BARNWELL       FAIR      79  54  41 W6        29.98F
AIKEN          FAIR      73  46  38 N10G17    30.01F
MANNING        FAIR      72  50  46 N7        29.97F
COLUMBIA       MOSUNNY   77  49  37 NW7       29.97F
SUMTER         PTSUNNY   73  49  44 VRB5      29.96S
FLORENCE       PTSUNNY   71  50  47 NW12      29.97F
MYRTLE BEACH   MOSUNNY   70  50  49 NW9       29.97
N MYRTLE BEACH SUNNY     71  51  49 NW7       29.95F

$$

GAZ063-065-086>088-099>101-113>116-118-119-134>141-150-231800-
...SOUTHEAST GEORGIA...

CITY           SKY/WX    TMP DP  RH WIND       PRES   REMARKS
SAVANNAH ARPT  MOSUNNY   80  49  33 CALM      29.97F
HUNTER AAF     MOSUNNY   80  55  42 VRB3      29.95S
FORT STEWART   PTSUNNY   80  49  32 NW8       29.94F
STATESBORO     SUNNY     80  52  38 NW5       29.98F
SYLVANIA       SUNNY     81  49  33 N5        29.99F
CLAXTON        FAIR      80  55  41 N5        29.98S

...CSRA...CENTRAL AND FAR SOUTHEAST GEORGIA...

CITY           SKY/WX    TMP DP  RH WIND       PRES   REMARKS
THOMSON        SUNNY     78  53  41 MISG      30.03S
AUGUSTA-BUSH   SUNNY     78  49  35 VRB7G18   29.97F
AUGUSTA-DANIEL SUNNY     77  51  40 VRB3      29.99F
SWAINSBORO     FAIR      79  46  31 NW8       29.99F
VIDALIA        MOSUNNY   79  48  34 CALM      29.99S
EASTMAN        FAIR      81  46  28 CALM      30.01F
HAZLEHURST     FAIR      82  47  29 N3        29.97F
ALMA           SUNNY     81  54  39 S6        29.97F
WAYCROSS       MOSUNNY   82  55  40 NW5       29.97F
JESUP          FAIR      77  50  38 NW5       29.98S
BAXLEY         PTSUNNY   82  52  34 SW6       29.97F
BRUNSWICK      MOSUNNY   86  52  30 NW5       29.98S
SAINT SIMONS   PTSUNNY   80  60  50 SE10      29.97S

$$

SCZ027-028-034-036>038-045-046-048>050-GAZ119-141-231800-
...LAKE AND SUPPLEMENTAL COASTAL OBSERVATIONS...

STATION/POSITION TIME  TEMP    WIND        PRES    WAVE   SWELL
                       AIR SEA DIR/SP/G            HT/PER HT/PER/DIR
                 (UTC) (F)     (DEG/KT/KT) (MB)    (FT/S) (FT/S/D)
WINYAH BAY       1545   69     330/  7     1014.0
LAKE MURRAY      1600   71     290/  4/ 11 1014.6S
ACE BASIN NERRS  NOT AVBL
FORT PULASKI     1600   74 75   90/  4/  5 1015.5R
SAPELO ISLAND    1600   80     210/  3     1015.0S

$$

ANZ835-935-AMZ111-154-330-350-352-354-370-450-454-472-231800-
...C-MAN AND BUOY OBSERVATIONS...

STATION/POSITION TIME  TEMP    WIND        PRES    WAVE   SWELL
                       AIR SEA DIR/SP/G            HT/PER HT/PER/DIR
                 (UTC) (F)     (DEG/KT/KT) (MB)    (FT/S) (FT/S/D)
BUOY 41004       1650   69 75  350/ 10/ 12 1014.3F   3/ 9   2/ 9
BUOY 41008       NOT AVBL
FOLLY BEACH CMAN 1700   76     270/  6/  8 1014.8F
CAPERS NEARSHORE 1608   70 74  330/  4/  8 1014.8S
FRIPP NEARSHORE  1608   72 75   50/  4/  6 1014.5S


STATION/POSITION TIME  TEMP    WIND        PRES    WAVE   SWELL
                       AIR SEA DIR/SP/G            HT/PER HT/PER/DIR
                 (UTC) (F)     (DEG/KT/KT) (MB)    (FT/S) (FT/S/D)
5E ST. MARYS GA  1621      79                N/A     2/10
FRYING PAN BUOY  1600   67 76  270/ 10/ 14 1014.0R
BUOY 41025       1650   61 66  290/ 14/ 16 1011.8F   3/ 8   2/110/ 8
CAPE LOOKOUT NC  1700   63     300/ 13/ 15 1012.2F
BUOY 41002       1650   73 77  310/ 10/ 12 1012.8R   4/ 7   3/ 10/ 7
BUOY 41010       1620   78 81  250/  2/  4 1014.0F
ST AUGUSTINE FL  1700   75 80   30/  9/ 10 1015.9F


$$




USA.gov is the U.S. government's official web portal to all federal, state and local government web resources and services.